CZ-8A R/B, 62980

Orbit data source: Space-Track

CZ-8A R/B, 62980 is space debris in LEO originally from a launch on Tue, 11 Feb 2025 UTC launched from the Wenchang Satellite Launch Center (WSC). Debris objects in space refer to the collection of defunct objects orbiting the Earth. Examples of debris include non-operational satellites, rocket bodies, and fragments generated from explosions, collisions, or faulty payload assembly.

Loading next visibility...
Identifier
62980, 2025-030K
Orbit
LEO
Country
Flag of CNCN / PRC
Related business
Manufacturer
CALT
Mission
Spacecraft
Bus & Motor
CZ-8A STAGE 2, Unknown motor
Mass
~2,800 kg wet, ~2,800 kg dry
Launch date (UTC)
2025-02-11 (1 year ago)
Launch vehicle
Unknown
Launch site
Wenchang Satellite Launch Center (WSC)
Object type
Payload
Rocket body
Debris
Shape & HBR
Cyl, 4.2 m
Radar Cross Section
36.967 m², Large (>1 m²)

Expand to show TLE details & history
Last TLE update: 17 hours ago

TLE from 17 hours ago
0 CZ-8A R/B
1 62980U 25030K   26104.63126934 -.00000011  00000-0  53094-4 0  9990
2 62980  50.0049 208.1867 0118337 154.1897 206.4989 14.32951390 61254
Epoch: 2026-04-14T15:09Z
TLE epoch observation values (Epoch: 2026-04-14T15:09:01.670Z)
Latitude
0.00002°
Longitude
138.12501°
Altitude
858.436 km
Speed
7.385 km/s
True Right ascension
13h 52m 44s
True Declination
0° 00' 00"
Sunlit
Object was in full shadow at epoch
Visualization orbit readout
Latitude
Unknown
Longitude
Unknown
Altitude
Unknown
Speed
Unknown
Apparent Right ascension
Unknown
Apparent Declination
Unknown
Sunlit
N/A
Visualization observer readout
Local Sidereal Time
14:25:20
Azimuth
Unknown
Elevation
Unknown
Doppler factor
Unknown
Orbital elements
Apogee altitude
867.361 km
Perigee altitude
697.885 km
Semi-major axis
7,160.76 km
Eccentricity
0.01183
Inclination
50.0049°
RAAN
208.1867°
Arg. of periapsis
154.1897°
True anomaly
205.90178°
Mean anomaly
206.4989°
Eccentric anomaly
206.19955°
Mean motion
3.58183 °/min
Orbital period
100.51 mins
BSTAR
0.000053094
Loading maneuver chart data...
Computing Atmospheric mass density...
Loading historical data...
Loading historical data...
Loading historical data...
Loading historical data...
Loading historical data...
Loading historical data...
Loading historical data...

Documentation

Showing up to 5 results
|